Tracking 30918 objects as of 2-Jul-2025
HD Live streaming from Space Station
objects crossing your sky now

COSMOS 1304

Track COSMOS 1304 now!
10-day predictions
COSMOS 1304 is classified as:


NORAD ID: 12803
Int'l Code: 1981-087A
Perigee: 909.3 km
Apogee: 977.7 km
Inclination: 82.9 °
Period: 103.8 minutes
Semi major axis: 7314 km
RCS: 1.592 m2 (large)
Launch date: September 4, 1981
Source: Commonwealth of Independent States (former USSR) (CIS)
Launch site: PLESETSK MISSILE AND SPACE COMPLEX (PKMTR)
Your satellite tracking list
ICON
Track 1 satellite(s)




NASA's NSSDC Master Catalog

Two Line Element Set (TLE):
1 12803U 81087A   25182.87659913  .00000080  00000-0  53769-4 0  9996
2 12803  82.9363 309.6411 0046710 140.3676 220.0917 13.87800633594565
Source of the keplerian elements: AFSPC